Regional Weather Roundup
Issued by NWS New Orleans/Baton Rouge, LA

Home | Current Version | Previous Version | Text Only | Print | Product List | Glossary On
Versions: 1 2 3 4 5 6 7 8 9 10 11 12 13 14 15 16 17 18 19 20 21 22 23 24 25 26 27
000
ASUS44 KLIX 281411
RWRLIX
NEW ORLEANS REGIONAL WEATHER ROUNDUP
NATIONAL WEATHER SERVICE NEW ORLEANS LA
900 AM CDT SUN AUG 28 2016

NOTE: "FAIR" INDICATES FEW OR NO CLOUDS BELOW 12,000 FEET WITH NO
      SIGNIFICANT WEATHER AND/OR OBSTRUCTIONS TO VISIBILITY.
      SKY/WX - SKY CONDITION AND SIGNIFICANT WEATHER.
      TMP - AIR TEMPERATURE.     DP    - DEWPOINT TEMPERATURE.
      RH  - RELATIVE HUMIDITY.   PRES  - PRESSURE.
      HI  - HEAT INDEX.          WCI   - WIND CHILL INDEX.

*  THESE STATIONS ARE NOT NWS OR FAA STATIONS AND ARE NOT UNDER
   NWS QUALITY CONTROL.

LAZ038-040-048-061>063-065>067-069-281500-
SOUTHEAST LOUISIANA

CITY           SKY/WX    TMP DP  RH WIND       PRES   REMARKS
N.O. AUDUBON   NOT AVBL
N.O. INTL ARPT PTSUNNY   84  79  85 NE10      29.99S HX  96
N.O. LAKEFRONT MOSUNNY   84  76  76 NE14      30.00S
N.O. DOWNTOWN*   N/A     85  78  80 NE6       30.01R HX  96
RESERVE*       CLOUDY    83  81  91 CALM      30.01R HX  97
SLIDELL        MOSUNNY   81  75  82 NE6       30.01R
BATON ROUGE    SUNNY     81  77  88 E9        30.01S
BOOTHVILLE     CLOUDY    80  75  84 NE7G17    30.01R
BELLE CHASSE   PTSUNNY   84  79  85 NE9       30.00R HX  96
BOGALUSA*        N/A     82  74  76 NE5       30.05R
GALLIANO*      CLOUDY   N/A N/A N/A NE6       29.99S
NEW ROADS*       N/A     81  76  86 NE6       30.01S
GONZALES*      PTSUNNY   81  77  89 NE5       30.00S
HAMMOND*       SUNNY     82  73  74 E5        30.01S
HOUMA*         PTSUNNY   79  75  89 E5        30.00R
PORT FOURCHON* PTSUNNY   82  75  78 E13       29.98S

$$

MSZ070-080>082-281500-
SOUTHERN MISSISSIPPI

CITY           SKY/WX    TMP DP  RH WIND       PRES   REMARKS
MCCOMB         SUNNY     82  73  74 NE6       30.04S
GULFPORT       CLOUDY    78  74  87 NE7       30.00F
BILOXI         CLOUDY    78  77  97 NE8       30.00F
PASCAGOULA     CLOUDY    78  76  93 NE7       30.01S
STENNIS ARPT*  SUNNY     79  70  73 CALM      30.02S

$$

COASTAL OBSERVATIONS
LAKE AND NEARSHORE STATIONS

STATION/POSITION TIME  TEMP    WIND        PRES    WAVE
                       AIR SEA DIR/SP/G            HT/PER
                 (UTC) (F)     (DEG/KT/KT) (MB)    (FT/S)
PASCAGOULA       1300   78      50/  8/ 11 1015.8
WAVELAND YACHT   1300   78 86   50/  8/ 10 1016.5
GRAND ISLE       1300   82 85  110/  7/ 11 1015.3
SOUTHWEST PASS   1300           70/ 13/ 15   N/A
NEW CANAL        1300   82 85   60/ 12/ 14 1014.8
SHELL BEACH      1300   83 86   60/ 10/ 11 1015.8

OFFSHORE STATIONS

STATION/POSITION TIME  TEMP    WIND        PRES    WAVE
                       AIR SEA DIR/SP/G            HT/PER
                 (UTC) (F)     (DEG/KT/KT) (MB)    (FT/S)
64 S DAUPHIN ISL 1300   84 86   80/ 12/ 14 1014.8

$$





USA.gov is the U.S. government's official web portal to all federal, state and local government web resources and services.